{"data":{"norad_id":62787,"intl_designator":"2025-016C","name":"QIANFAN-57","alt_names":[],"object_type":"PAYLOAD","status":"ACTIVE","operator":null,"country":"PRC","launch_date":"2025-01-23","launch_site_code":"TAISC","launch_vehicle":null,"mission":null,"orbit_class":"UNKNOWN","rcs_meters":null,"size_class":null,"mass_kg":null,"dimensions":null,"purposes":[],"wikipedia_slug":null,"has_3d_model":false,"image_url":null,"decayed_at":null,"tle_current":{"epoch":"2026-09-22T20:33:25.926912Z","epoch_age_seconds":114805,"freshness":"FRESH","line1":"1 62787U 25016C   26265.85655008  .00000050  00000+0  58507-4 0  9995","line2":"2 62787  88.9678  73.7139 0002364  80.4853 279.6565 13.51028010 85566","mean_motion":13.5102801,"eccentricity":0.0002364,"inclination_deg":88.9678,"raan_deg":73.7139,"arg_perigee_deg":80.4853,"mean_anomaly_deg":279.6565,"bstar":5.8507e-5,"rev_number":8556,"period_min":106.58550299042,"perigee_km":1066.7182795772,"apogee_km":1070.239039461,"semimajor_km":7446.6156595191,"source":"CELESTRAK","updated_at":"2026-09-23T09:00:21.633373Z"}}}